Flag for France Weather past 2 weeks in Strasbourg, France

Now
57 °F

Clear.


Feels Like: 57 °F
Forecast: 45 / 71 °F
Wind: 2 mph from North

Location: Strasbourg Airport

Current Time: Aug 21, 2014 at 9:27:14 AM

Latest Report: Aug 21, 2014 at 8:30 AM


Visibility: N/A

Pressure: 30.07 "Hg

Humidity: 82%

Dew point: 52 °F

Location of StrasbourgLocation

Historic Weather in Strasbourg — Graph

°F

Strasbourg temperature yesterday

Maximum temperature yesterday: 64 °F (at 12:30 PM)
Minimum temperature yesterday: 46 °F (at 5:30 AM)
Average temperature yesterday: 57 °F

Past Weeks' High & Low Weather Summary

 TemperatureHumidityPressure
High84 °F (Aug 10, 5:00 PM)100% (Aug 8, 5:30 AM)30.18 "Hg (Aug 8, 5:30 AM)
Low46 °F (Aug 20, 5:30 AM)34% (Aug 11, 6:00 PM)29.65 "Hg (Aug 13, 1:30 PM)
Average65 °F74%29.95 "Hg
* Reported Aug 6 8:00 AM — Aug 21 8:30 AM, Strasbourg, Weather by CustomWeather, © 2014

Note: Actual official high and low records may vary slightly from our data, if they occured in-between our weather recording intervals... More about our weather records

Advertising

Strasbourg weather history for previous 24 hours

 ConditionsComfort  
Time TempWeatherWind HumidityBarometerVisibility
8:30 AM
Aug 21
57 °FClear.2 mph82%30.07 "HgN/A
8:00 AM52 °FClear.No wind94%30.07 "HgN/A
7:30 AM48 °FClear.3 mph94%30.07 "HgN/A
7:00 AM46 °FClear.3 mph100%30.07 "HgN/A
6:30 AM48 °FClear.2 mph94%30.07 "HgN/A
6:00 AM48 °FClear.2 mph94%30.07 "HgN/A
5:30 AM48 °FClear.No wind94%30.07 "HgN/A
5:00 AM48 °FClear.2 mph94%30.07 "HgN/A
4:30 AM48 °FClear.2 mph94%30.07 "HgN/A
4:00 AM50 °FClear.3 mph94%30.07 "HgN/A
3:30 AM50 °FClear.2 mph100%30.07 "HgN/A
3:00 AM50 °FClear.2 mph100%30.07 "HgN/A
2:30 AM50 °FPassing clouds.5 mph94%30.07 "HgN/A
2:00 AM52 °FClear.No wind88%30.07 "HgN/A
1:30 AM54 °FPassing clouds.5 mph88%30.07 "HgN/A
1:00 AM54 °FClear.5 mph94%30.04 "HgN/A
12:30 AM55 °FPartly cloudy.2 mph88%30.04 "HgN/A
12:00 AM55 °FPassing clouds.1 mph94%30.04 "HgN/A
11:30 PM
Aug 20
57 °FClear.2 mph82%30.04 "HgN/A
11:00 PM57 °FClear.2 mph82%30.04 "HgN/A
10:30 PM57 °FLight rain. Clear.1 mph82%30.04 "HgN/A
10:00 PM59 °FClear.3 mph72%30.04 "HgN/A
9:30 PM59 °FOvercast.6 mph72%30.04 "HgN/A
9:00 PM59 °FLight rain. Clear.2 mph82%30.01 "HgN/A
8:30 PM61 °FLight rain. Clear.No wind72%30.01 "HgN/A
8:00 PM61 °FClear.3 mph72%30.01 "HgN/A
7:30 PM63 °FClear.6 mph64%30.01 "HgN/A
7:00 PM64 °FClear.2 mph52%30.01 "HgN/A
6:30 PM64 °FClear.1 mph56%30.01 "HgN/A
6:00 PM64 °FClear.2 mph56%30.01 "HgN/A
5:30 PM64 °FClear.3 mph56%30.01 "HgN/A
5:00 PM64 °FClear.2 mph60%30.01 "HgN/A
4:30 PM64 °FClear.3 mph56%30.04 "HgN/A
4:00 PM64 °FClear.2 mph52%30.04 "HgN/A
3:30 PM64 °FClear.2 mph52%30.04 "HgN/A
3:00 PM64 °FClear.3 mph49%30.04 "HgN/A
2:30 PM64 °FMore clouds than sun.3 mph52%30.04 "HgN/A
2:00 PM64 °FClear.3 mph56%30.04 "HgN/A
1:30 PM63 °FLow clouds.5 mph56%30.04 "HgN/A
1:00 PM64 °FClear.5 mph52%30.04 "HgN/A
12:30 PM64 °FClear.3 mph52%30.04 "HgN/A
12:00 PM63 °FClear.5 mph59%30.04 "HgN/A
11:30 AM59 °FClear.5 mph63%30.07 "HgN/A
11:00 AM59 °FClear.5 mph72%30.07 "HgN/A
10:30 AM57 °FOvercast.5 mph77%30.07 "HgN/A
10:00 AM57 °FClear.5 mph77%30.07 "HgN/A
9:30 AM59 °FClear.1 mph68%30.04 "HgN/A
9:00 AM57 °FClear.No wind72%30.04 "HgN/A
Weather by CustomWeather, © 2014

See weather overviewHow to use our weather pages